Location: Agua Fría
(32.5614°N, 116.5225°W)
Time: 11:41:38
(UTC+00:00)

Daily predictions for brighter satellites

Satellite Brightness Start Highest point End
(mag) Time Altitude Azimuth Time Altitude Azimuth Time Altitude Azimuth
Milstar 3 Cent rocket 2.6 12:05:31 53° SSE 12:05:31 53° SSE 12:11:37 10° ESE
Cosmos 2333 Rocket 2.1 12:13:29 69° S 12:14:12 85° ESE 12:19:58 10° NNE
Gblst 52 Del rocket 4.1 12:15:00 82° SSW 12:15:00 82° SSW 12:20:25 10° SE
SL-4 R/B 3.8 12:19:29 26° SSE 12:19:29 26° SSE 12:21:37 10° SSE
Cosmos 1939 Rocket 4.2 12:28:38 29° S 12:28:38 29° S 12:30:36 10° S
Cosmos 2227 4.3 12:27:58 56° SW 12:27:58 56° SW 12:32:55 10° S
Lacrosse 5 rocket 2.8 12:25:19 21° S 12:27:28 36° ESE 12:31:24 10° NE
BREEZE-M DEB (TANK) 4.2 12:28:34 30° N 12:30:57 46° NE 12:44:48 10° ESE
Cosmos 1464 Rocket 3.9 12:25:01 10° S 12:31:08 86° E 12:37:20 10° N
Cosmos 1844 Rocket 2.9 12:29:01 30° N 12:31:52 68° ENE 12:37:28 10° SSE
DMSP B5D2-2 4.3 12:27:46 10° S 12:32:00 49° SW 12:32:00 49° SW
ATLAS 3B R/B 3.5 12:34:12 33° NNW 12:34:12 33° NNW 12:39:42 10° NNE
IRS-P3 Rocket 4.4 12:28:02 10° N 12:33:12 66° WNW 12:38:22 10° SSW
COSMOS 2455 3.8 12:30:25 15° N 12:35:01 43° ENE 12:40:41 10° SE
Cosmos-2242 4.2 12:33:51 10° N 12:37:50 41° E 12:41:49 10° SSE
H-2A R/B 1.8 12:34:15 10° NNE 12:39:11 87° W 12:44:10 10° SSW
CZ-2D R/B 3.4 12:40:54 10° NNE 12:44:48 76° E 12:48:43 10° S
USA 281 3.1 12:40:50 10° NNE 12:47:18 63° WNW 12:53:45 10° SW
Cosmos 2333 4.2 12:42:57 13° SW 12:47:57 57° WNW 12:53:38 10° NNE
Cosmos 2322 4.0 12:44:46 10° S 12:50:23 67° ESE 12:56:01 10° NNE
USA 215 3.2 12:45:18 10° NE 12:51:45 66° NW 12:57:03 16° WSW
IRS-1C 4.1 12:47:49 10° N 12:53:01 54° WNW 12:58:10 10° SSW
ARGOS 3.9 12:49:14 10° NNE 12:54:30 55° E 12:59:44 10° S
COSMO-SKYMED 1 3.1 12:51:56 10° SSE 12:56:10 57° ENE 13:00:25 10° N
Timation 2 Rocket 4.0 12:54:38 21° NNW 12:59:08 68° WSW 13:05:47 10° S
Okean 1-7 Rocket 3.6 12:55:44 10° SSW 13:00:00 52° W 13:04:17 10° N
Cosmos 2034 Rocket 3.9 12:53:51 10° S 13:00:12 82° W 13:06:34 10° N
NOAA 12 4.4 12:55:54 10° NNE 13:01:10 69° ESE 13:06:23 10° S
Cosmos 2056 Rocket 3.8 12:56:27 10° N 13:01:48 68° ENE 13:07:02 10° SSE
Cosmos 1812 2.5 13:00:46 18° N 13:03:22 87° E 13:07:00 10° S
Gbstr 26 Del rocket 3.2 13:02:09 35° WNW 13:04:04 74° SW 13:09:36 10° SE
Cosmos 494 Rocket 4.0 13:00:49 10° SSW 13:05:54 83° ESE 13:11:01 10° NNE
Helios 1A 3.1 13:04:38 10° S 13:08:37 50° W 13:10:47 24° NW
CZ-3 R/B 2.8 12:55:50 15° WSW 13:13:08 69° S 13:19:09 10° E
SL-19 R/B 4.5 13:10:39 10° N 13:15:40 40° WNW 13:20:31 10° SW
Chandra Rocket (1) 3.5 13:14:11 17° SW 13:16:21 30° S 13:23:17 10° SE
SL-08 RB Rocket 4.0 13:13:09 10° NNE 13:17:45 72° ESE 13:22:21 10° S
PSLV R/B 3.5 13:14:45 10° NNE 13:19:04 87° ESE 13:23:20 10° SSW
Cosmos 1782 3.3 13:15:28 10° N 13:19:18 59° E 13:23:05 10° SSE
ARIANE 5 R/B 3.2 13:15:14 10° N 13:19:47 31° WNW 13:24:20 10° SW
Cosmos 1825 Rocket 3.5 13:17:23 10° S 13:21:46 88° WNW 13:26:08 10° N
Cosmos 2360 Rocket 3.5 13:23:51 18° NW 13:23:51 18° NW 13:27:20 10° NNW
SJ-12 4.0 13:20:31 10° N 13:24:24 49° WNW 13:28:17 10° SSW
OAO 1 Rocket 4.4 13:20:21 17° WSW 13:24:34 90° S 13:29:55 10° ENE
Cosmos 1812 Rocket 3.5 13:20:49 10° NNW 13:25:12 64° W 13:29:36 10° S
Cosmos 1371 Rocket 4.0 13:20:16 10° NNW 13:25:35 68° WSW 13:30:53 10° S
Cosmos 2219 Rocket 2.7 13:22:38 10° SW 13:27:45 35° WNW 13:32:55 10° N
SAR-Lupe-2 4.3 13:25:40 10° NNE 13:29:12 56° E 13:32:41 10° S
Cosmos 1758 Rocket 4.4 13:25:55 10° SW 13:29:34 26° WNW 13:33:13 10° NNW
Cosmos 2151 4.4 13:27:32 10° SSE 13:31:26 40° E 13:35:22 10° NNE
Cosmos 1844 4.2 13:28:47 13° NW 13:33:15 37° WSW 13:38:17 10° S
BlueWalker 3 3.9 13:30:25 10° NNW 13:33:29 22° NE 13:36:32 10° E
OAO 3 Rocket 3.7 13:28:44 10° WSW 13:33:33 62° SSE 13:38:24 10° E
ERS-2 1.4 13:33:22 10° N 13:36:17 66° WNW 13:39:11 10° SSW
Cosmos 2026 Rocket 4.1 13:31:06 10° N 13:37:30 84° E 13:43:48 10° S
USA 229 DEB 3.9 13:32:16 10° WSW 13:37:54 39° NW 13:43:59 10° NNE
USA 229 3.9 13:32:18 10° WSW 13:37:57 40° NW 13:44:03 10° NNE
ASTRO E2 4.0 13:35:53 13° WSW 13:38:27 26° SSW 13:41:32 10° SE
Spot 4 Rocket 4.2 13:35:44 10° N 13:40:43 51° WNW 13:45:40 10° SSW
Cosmos 1048 Rocket 4.0 13:37:03 10° SSW 13:42:07 54° WNW 13:47:08 10° N
Cosmos 2195 Rocket 4.4 13:37:16 10° N 13:43:24 72° W 13:49:27 10° S
SKYMED 2 4.2 13:40:17 10° SSW 13:44:14 35° W 13:48:13 10° NNW
Atlas Centaur 2 4.0 13:43:24 10° S 13:45:33 14° SSE 13:47:51 10° ESE
SKYMED 3 4.4 13:45:56 10° SSE 13:50:05 87° WSW 13:54:14 10° NNW
Cosmos 1092 Rocket 4.0 13:44:02 10° N 13:50:13 74° W 13:56:27 10° S
Cosmos 1634 Rocket 4.0 13:45:55 10° SSW 13:51:58 62° W 13:58:07 10° N
Sakura Rocket 4.4 13:50:22 10° SW 13:54:02 30° SSE 13:57:16 10° ESE
Cosmos 2285 Rocket 4.0 13:49:49 10° SSW 13:56:08 86° WNW 14:02:32 10° NNE
COSMOS 2428 3.2 13:52:59 10° SW 13:58:15 39° WNW 14:03:34 10° N
ATLAS 2A CENTAUR R/B 3.2 13:55:54 10° WSW 13:58:23 17° SSW 14:00:00 10° SSE
Cosmos 2333 Rocket 3.9 13:57:07 10° WNW 13:59:10 12° NW 14:01:13 10° NNW
SMAP 3.2 13:58:36 10° NNE 14:03:16 86° ESE 14:07:55 10° SSW
Cosmos 1980 3.8 13:58:42 10° SSW 14:04:20 89° ESE 14:10:01 10° NNE
NOSS 0 Rocket 4.0 14:00:51 10° SSW 14:07:00 64° WNW 14:13:14 10° NNE
